Weather in Baliuag

Philippines     14°57′35″N   120°53′58″E
temp.,
°C
wind,
m/s
gust,
m/s
humid.,
%
clouds,
%
prec.,
mm/h
press.,
hPa
HPBL,
m
16 september, thu
thu1623:00+25e1190100 0.1 101215
02:00+24ne119291 0.1 101011
05:00+24nne2293100 0.0 101030
08:00+27ne11835 0.0 1011299
11:00+30nw227191 0.0 1010924
14:00+31w116963 2.5 1008832
17:00+29ssw118091 2.1 100735
20:00+26ese228791 3.3 101015
17 september, fri
fri1723:00+25e1188100 0.4 101113
02:00+25ne119097 0.4 100912
05:00+24ene119195 0.0 100816
08:00+27ene128263 0.0 1010300
11:00+31wnw0361100 0.0 10091351
14:00+32ne2459100 0.4 10061490
17:00+29ene2377100 0.5 100773
20:00+25ene228492 0.6 100934
18 september, sat
sat1823:00+24e228744 0.0 101026
02:00+24ene228912 0.0 100817
05:00+24ene129059 0.0 100915
08:00+27ne248284 0.0 1010309
11:00+31ene4664100 0.0 10091486
14:00+32ene466191 0.0 10071509
17:00+29e36741 0.1 1007207
20:00+25e36840 0.1 1010111
19 september, sun
sun1923:00+24ene22862 0.0 101131
02:00+24ne22884 0.0 100928
05:00+24ne228926 0.0 100923
08:00+28ne367771 0.0 1010821
11:00+31ene576196 0.0 10101585
14:00+32ene576098 0.0 10081350
17:00+27e377690 0.0 1008244
20:00+25e3484100 0.0 101086
20 september, mon
mon2023:00+25e228398 0.0 101023
02:00+24ene118795 0.0 100813
05:00+24nne229044 0.0 100823
08:00+27nne138161 0.0 1010401
11:00+31ene456174 0.2 10091503
14:00+31ese456217 0.6 10061111
17:00+29e357266 0.6 1006157
20:00+25ene3481100 0.6 100975